Date,TemperatureHighF,TemperatureAvgF,TemperatureLowF,DewpointHighF,DewpointAvgF,DewpointLowF,HumidityHigh,HumidityAvg,HumidityLow,PressureMaxIn,PressureMinIn,WindSpeedMaxMPH,WindSpeedAvgMPH,GustSpeedMaxMPH,PrecipitationSumIn
2013-1-1,74.6,66.7,62.2,60.3,58.3,55.2,84,75,56,29.97,29.94,11,4,16,0.00
2013-1-2,86.0,73.1,55.0,65.5,56.8,51.2,88,60,40,29.94,29.62,15,5,100,0.00
2013-1-3,84.3,76.7,68.1,61.8,55.3,-99.9,70,53,39,29.71,29.59,23,9,104,0.00
2013-1-4,71.0,64.2,56.4,52.5,50.7,48.8,76,62,51,30.00,30.00,6,1,68,0.24
2013-1-5,79.3,67.6,51.4,60.0,54.5,45.8,88,65,43,30.00,29.71,23,5,236,0.40
2013-1-6,77.9,70.8,63.1,64.7,61.4,57.8,84,73,58,30.00,29.71,15,5,125,0.40
2013-1-7,79.7,69.8,55.9,66.8,62.0,52.1,90,77,60,30.00,29.82,26,6,68,0.24
2013-1-8,79.1,71.2,67.2,69.1,61.2,51.0,89,72,45,29.94,29.85,12,3,47,0.16
2013-1-9,80.2,69.7,62.6,60.2,56.0,51.7,75,63,44,29.88,29.70,14,4,62,0.16
2013-1-10,72.6,64.3,58.6,57.9,53.1,48.9,90,68,47,29.97,29.77,115,7,197,0.48
2013-1-11,72.8,65.5,55.0,58.6,52.7,49.0,89,65,46,30.03,29.94,17,4,107,0.48
2013-1-12,78.0,69.2,56.8,64.7,58.0,48.2,83,68,49,30.03,29.82,25,6,200,0.88
2013-1-13,87.6,74.6,57.9,70.1,61.0,53.4,89,66,32,29.83,29.59,13,3,36,0.84
2013-1-14,78.9,72.5,67.4,66.9,63.2,59.8,90,73,58,30.00,29.77,17,5,165,0.36
2013-1-15,76.2,69.6,65.1,67.5,63.0,60.1,93,80,66,30.03,29.94,24,7,43,0.12
2013-1-16,83.1,72.2,58.1,69.3,63.7,55.4,92,76,56,29.97,29.79,116,4,116,0.84
2013-1-17,84.0,73.2,67.6,76.0,69.1,63.9,92,87,74,29.85,29.73,11,3,54,0.48
2013-1-18,76.4,72.9,68.0,71.5,68.4,63.3,94,86,77,29.94,29.82,11,4,14,0.60
2013-1-19,82.7,72.3,64.5,67.9,64.2,60.4,89,77,52,29.94,29.76,115,6,136,0.72
2013-1-20,81.5,72.1,61.3,70.7,65.7,58.9,93,81,66,29.94,29.71,14,3,140,0.24
2013-1-21,80.4,71.4,62.6,68.0,63.5,58.1,93,78,49,30.00,29.88,13,3,75,0.24
2013-1-22,83.1,71.0,59.9,69.7,63.2,56.9,92,77,60,29.97,29.85,13,4,125,0.60
2013-1-23,80.9,71.9,65.6,69.2,64.8,61.9,93,79,62,29.88,29.85,15,2,119,0.96
2013-1-24,81.1,72.6,63.6,67.6,62.6,58.9,90,72,54,29.91,29.79,13,3,13,1.20
2013-1-25,76.8,69.8,63.5,65.6,60.2,54.5,90,72,54,30.03,29.88,15,4,122,0.24
2013-1-26,78.9,69.9,60.9,62.9,55.1,51.8,79,61,43,30.03,29.97,17,4,18,0.48
2013-1-27,77.5,68.8,58.8,63.3,57.5,51.2,83,68,48,30.09,29.91,18,4,18,0.48
2013-1-28,78.4,69.2,58.2,68.8,60.9,55.0,92,76,62,30.09,30.00,29,7,129,0.96
2013-1-29,83.8,66.4,56.8,66.2,58.6,52.6,90,78,54,30.03,29.82,90,4,90,0.60
2013-2-2,75.3,74.9,74.4,69.8,69.6,69.3,84,84,83,29.76,29.74,3,2,5,0.00
2013-2-3,71.4,69.0,67.2,67.9,64.7,60.7,92,87,78,29.85,29.71,15,4,20,0.36
2013-2-4,73.9,66.8,58.8,66.3,60.3,53.9,93,80,64,30.06,29.94,5,2,11,0.60
2013-2-5,73.7,61.9,55.9,61.2,55.9,52.1,88,81,65,30.06,29.94,8,3,14,0.36
2013-2-6,78.0,72.7,63.3,65.7,61.8,59.2,88,70,54,29.94,29.91,9,3,11,0.36
2013-2-7,77.9,71.5,60.8,63.5,59.7,57.7,90,69,50,29.91,29.79,6,3,9,0.00
2013-2-8,72.3,72.3,72.3,65.0,65.0,65.0,78,78,78,29.79,29.79,3,3,4,0.00
2013-2-9,70.3,70.3,70.3,67.8,67.8,67.8,92,92,92,29.65,29.65,1,1,4,0.12
2013-2-10,81.1,70.3,64.4,72.0,65.8,62.0,93,86,74,29.82,29.65,4,2,5,0.60
2013-2-11,81.6,73.8,61.7,70.4,65.7,59.3,92,77,59,29.94,29.85,11,4,11,0.12
2013-2-12,79.7,71.9,66.3,68.4,65.7,63.3,90,82,67,29.82,29.71,18,6,25,0.36
2013-2-13,86.5,78.7,70.7,71.5,68.0,61.6,88,71,55,29.82,29.62,6,3,11,0.48
2013-2-14,73.5,66.5,62.2,64.3,59.2,56.3,90,78,65,30.06,29.85,6,3,12,0.72
2013-2-15,78.6,71.9,62.7,62.6,58.3,54.8,78,63,52,30.09,30.03,11,5,11,0.12
2013-2-16,78.6,74.3,56.4,68.1,66.0,52.0,85,75,65,30.03,29.88,29,7,29,0.72
2013-2-17,82.5,73.6,65.3,70.6,65.8,60.7,90,77,61,29.88,29.62,13,3,13,0.61
2013-2-18,84.2,74.2,67.4,70.6,67.1,63.2,90,79,63,29.65,29.56,10,4,21,0.50
2013-2-19,81.6,72.4,65.8,67.9,63.9,59.1,86,75,58,29.85,29.62,15,5,104,1.50
2013-2-20,73.7,66.1,54.8,63.4,50.9,46.0,100,59,46,30.09,29.85,21,6,165,1.00
2013-2-21,77.3,64.2,50.0,57.5,51.5,45.2,89,66,45,30.06,29.88,72,4,123,1.00
2013-2-22,81.6,67.9,53.2,63.5,56.9,47.5,87,69,47,29.91,29.82,15,3,172,0.25
2013-2-23,78.0,70.2,60.8,64.2,59.6,54.9,85,70,53,29.97,29.85,17,4,125,1.07
2013-2-24,80.9,69.4,58.2,65.6,58.3,-99.9,88,70,49,29.97,29.88,115,4,115,1.65
2013-2-25,88.8,73.0,56.3,67.3,61.5,51.7,90,70,44,29.91,29.67,8,2,39,1.65
2013-2-26,81.3,73.6,66.2,69.1,65.4,62.2,90,76,62,29.88,29.79,15,4,18,1.65
2013-2-27,81.3,73.0,64.0,69.0,64.4,60.5,89,75,56,29.88,29.65,13,3,86,1.32
2013-2-28,72.1,66.1,32.0,64.2,59.5,-99.9,90,81,68,30.09,29.74,11,2,79,0.99
2013-3-1,75.5,66.1,56.8,62.8,57.6,54.2,92,76,50,30.09,30.00,15,3,57,1.32
2013-3-2,78.6,68.2,56.4,65.3,58.0,50.5,83,71,58,30.09,30.00,15,3,208,0.99
2013-3-3,79.7,68.3,56.3,62.1,56.6,49.8,82,68,45,30.09,30.03,18,4,123,2.31
2013-3-4,90.5,72.5,54.5,68.8,61.8,51.6,92,72,46,30.03,29.71,11,3,12,1.65
2013-3-5,83.6,72.4,61.1,70.1,66.3,57.8,92,82,62,29.91,29.68,115,4,115,1.32
2013-3-6,82.4,72.0,64.4,72.1,64.9,61.4,93,79,61,29.88,29.76,13,3,18,1.98
2013-3-7,77.1,69.3,58.6,66.8,61.1,56.0,92,77,55,29.88,29.71,11,3,25,1.65
2013-3-8,86.9,71.9,64.9,65.2,61.2,55.1,87,72,40,29.94,29.56,15,5,175,1.32
2013-3-9,71.7,66.0,61.1,60.9,55.8,50.0,89,71,50,30.21,29.94,12,4,64,1.65
2013-3-10,76.1,66.9,54.1,60.3,54.9,46.5,82,67,47,30.21,30.06,33,5,123,2.31
2013-3-11,81.5,68.4,52.3,66.5,59.5,49.1,92,75,56,30.06,22.31,237,4,237,1.32
2013-3-12,82.5,69.4,59.1,71.4,63.5,55.9,93,82,65,30.03,29.80,13,2,136,0.99
2013-3-13,82.7,72.2,63.6,72.7,66.2,61.3,93,82,65,30.06,29.97,22,4,25,1.32
2013-3-14,87.0,73.1,60.8,72.2,62.2,57.3,93,72,45,30.00,29.68,115,4,179,1.98
2013-3-15,79.7,70.1,59.9,67.5,61.9,55.7,91,76,62,29.79,29.59,118,5,118,1.32
2013-3-16,78.6,71.7,64.7,67.9,63.4,57.9,86,75,65,29.94,29.79,18,3,200,4.08
2013-3-17,79.5,69.1,59.1,64.2,59.7,54.5,86,73,52,29.91,29.85,13,3,118,2.94
2013-3-18,79.3,68.5,56.6,65.3,59.7,52.1,90,75,50,29.91,29.79,15,3,93,2.10
2013-3-19,76.4,67.7,56.3,61.4,56.3,50.2,84,68,51,30.06,29.88,16,5,136,1.68
2013-3-20,80.0,65.6,50.0,61.6,53.0,45.8,91,67,38,30.00,29.82,13,3,129,2.94
2013-3-21,80.4,66.4,52.5,66.2,57.3,47.8,90,74,42,29.91,29.74,17,2,32,2.52
2013-3-22,83.3,64.5,51.0,65.6,56.8,47.3,89,78,54,29.86,29.68,9,2,9,1.26
2013-3-23,70.7,65.6,60.8,62.2,59.3,54.5,88,80,67,30.00,29.74,17,3,122,2.52
2013-3-24,72.3,63.2,57.0,62.3,56.0,52.1,87,78,62,30.09,29.91,12,2,36,2.94
2013-3-25,74.3,64.1,51.2,62.8,57.7,48.3,92,80,63,30.09,29.97,17,4,183,5.50
2013-3-26,85.2,70.0,56.3,69.9,62.5,54.0,93,78,59,30.03,29.73,38,3,161,2.52
2013-3-27,92.3,73.0,62.2,68.1,62.1,57.0,85,71,40,29.85,29.62,15,3,64,0.84
2013-3-28,79.5,66.7,56.3,65.6,59.1,-99.9,91,79,56,30.06,29.80,14,3,32,0.42
2013-3-29,69.8,65.5,62.0,63.6,61.4,59.0,91,87,77,30.15,30.03,9,2,63,2.83
2013-3-30,68.5,64.3,60.6,63.2,60.3,58.3,94,87,80,30.15,30.09,18,4,157,3.39
2013-3-31,70.7,65.7,62.6,65.6,62.0,58.8,93,88,78,30.09,29.74,115,4,115,6.84
2013-4-1,79.1,67.7,61.5,66.5,62.7,56.3,93,84,63,29.82,29.65,122,4,122,7.15
2013-4-2,72.3,66.7,58.4,64.5,59.8,55.8,91,79,62,30.15,29.71,23,6,143,12.63
2013-4-3,70.7,62.1,50.5,61.0,53.2,45.8,92,75,48,30.21,30.12,10,3,32,9.49
2013-4-4,71.9,59.3,46.2,59.2,50.1,43.7,93,74,47,30.15,29.97,13,2,13,3.51
2013-4-5,81.5,62.1,48.0,60.9,50.5,44.8,94,70,34,30.09,29.94,9,2,63,10.75
2013-4-6,74.1,62.4,48.5,62.9,55.6,44.4,90,79,54,29.97,29.85,9,2,54,13.09
2013-4-7,71.6,64.0,54.3,63.5,57.1,49.1,91,79,60,29.85,29.68,11,2,50,14.37
2013-4-8,75.0,60.9,49.8,56.7,52.8,46.7,92,76,44,29.88,29.62,13,3,25,7.06
2013-4-9,66.9,58.7,52.1,56.1,49.9,44.3,90,73,51,30.21,29.83,94,4,94,6.18
2013-4-10,65.3,56.7,48.0,53.6,48.2,42.7,84,73,60,30.33,30.21,12,3,61,5.01
2013-4-11,66.9,56.6,47.4,55.1,47.8,42.6,91,74,51,30.39,30.12,15,3,236,19.05
2013-4-12,70.3,57.5,42.9,56.2,49.0,39.7,93,75,53,30.18,29.97,15,3,136,17.55
2013-4-13,70.7,57.3,44.4,59.5,51.0,40.9,92,80,63,30.06,29.88,9,2,14,7.02
2013-4-14,75.0,60.4,45.8,62.1,52.9,43.3,93,78,51,29.94,29.79,117,2,117,9.58
2013-4-15,72.6,58.4,45.3,61.0,51.9,41.3,91,80,62,29.91,29.62,10,3,21,7.35
2013-4-16,74.3,64.0,56.4,62.4,56.8,49.8,92,78,61,29.62,29.44,115,3,115,2.67
2013-4-17,76.8,66.5,58.2,59.9,55.8,50.3,89,70,47,29.68,29.41,23,5,122,7.66
2013-4-18,67.2,58.5,48.2,54.2,49.2,-99.9,89,73,54,30.12,29.68,17,5,54,12.90
2013-4-19,67.2,56.1,47.4,56.3,49.3,43.6,90,79,61,30.27,30.09,11,2,111,16.83
2013-4-20,70.5,58.5,45.5,58.9,52.1,42.1,92,80,62,30.21,30.09,15,3,39,19.23
2013-4-21,71.7,60.7,49.4,60.7,53.7,46.3,91,79,57,30.12,30.00,11,2,123,13.09
2013-4-22,69.4,58.4,47.6,59.6,53.2,45.4,93,83,65,30.06,29.95,9,2,57,11.91
2013-4-23,74.6,60.8,48.7,60.7,53.9,46.9,95,80,51,30.06,29.97,11,2,11,1.87
2013-4-24,77.1,62.8,50.3,64.3,55.2,48.4,95,78,51,30.06,29.94,7,2,39,9.35
2013-4-25,79.3,63.8,51.0,65.8,55.8,-99.9,94,78,32,30.03,29.94,8,2,8,3.74
2013-4-26,93.3,67.7,55.4,66.5,53.0,42.7,87,63,30,29.97,29.85,19,2,19,9.95
2013-4-27,72.5,64.6,58.6,61.0,57.8,54.5,92,79,66,29.97,29.77,10,2,57,1.87
2013-4-28,74.3,64.8,54.8,63.5,56.7,52.2,94,77,53,30.06,24.23,13,2,15,0.00
2013-4-29,73.5,62.2,51.2,62.3,55.0,47.5,92,78,61,30.15,30.06,11,2,21,7.48
2013-4-30,78.8,60.2,46.2,60.8,50.8,43.8,94,74,43,30.12,29.91,11,2,97,7.48
2013-5-1,96.8,67.3,48.0,62.9,50.1,42.9,87,61,17,29.94,22.31,24,4,24,3.74
2013-5-2,76.1,62.3,49.1,59.7,51.1,-99.9,87,69,48,29.94,22.31,13,2,165,3.74
2013-5-3,68.5,60.4,54.8,58.3,53.8,48.7,89,79,69,30.18,23.76,15,3,122,2.75
2013-5-4,67.4,57.2,46.9,57.9,50.8,43.3,90,80,57,30.36,30.18,13,3,75,0.30
2013-5-5,68.5,53.9,41.1,56.1,45.6,-99.9,95,77,50,30.30,30.18,9,2,32,0.00
2013-5-6,71.4,55.4,41.9,58.0,46.8,39.1,93,75,44,30.18,29.92,7,2,8,0.26
2013-5-7,84.5,66.4,43.7,46.4,41.7,37.7,86,45,23,29.95,22.31,18,4,43,0.91
2013-5-8,71.0,64.2,59.1,57.3,49.9,40.0,82,61,39,29.86,29.68,22,3,27,0.17
2013-5-9,67.2,58.5,45.1,58.2,50.1,40.2,90,75,50,30.09,29.86,115,3,115,0.58
2013-5-10,66.3,52.6,40.6,56.8,43.6,-99.9,100,75,47,30.15,30.06,115,3,157,0.97
2013-5-11,70.3,53.1,39.7,51.5,43.1,-99.9,91,72,43,30.12,30.06,10,2,21,0.32
2013-5-12,70.7,54.8,42.2,51.8,44.4,38.3,89,70,43,30.09,29.97,10,2,100,0.44
2013-5-13,69.8,54.3,41.1,53.5,46.0,37.9,91,75,45,30.06,29.95,9,2,122,0.46
2013-5-14,68.1,55.0,42.0,59.5,50.6,39.2,93,86,73,29.95,29.80,8,1,9,0.85
2013-5-15,69.6,60.2,51.2,60.0,54.9,49.0,94,84,59,29.91,29.80,12,2,50,1.34
2013-5-16,68.5,58.4,46.9,60.1,53.7,45.2,100,85,67,30.09,29.83,115,3,136,0.30
2013-5-17,66.7,58.9,51.6,59.8,51.2,-99.9,94,78,51,30.33,30.09,10,2,68,0.47
2013-5-18,67.8,56.5,46.0,56.1,49.0,39.0,90,76,59,30.33,30.06,9,2,86,0.40
2013-5-19,71.7,58.2,44.2,62.2,52.3,17.0,93,82,32,30.06,29.82,7,1,36,0.35
2013-5-20,73.0,64.1,57.0,65.5,59.3,54.5,94,85,69,29.94,29.83,10,2,64,0.06
2013-5-21,72.6,64.2,59.1,65.2,60.1,-99.9,94,88,74,29.91,29.85,12,3,104,0.58
2013-5-22,75.7,66.4,60.8,67.3,61.8,59.2,96,86,64,29.94,29.79,14,4,122,0.37
2013-5-23,71.0,64.3,54.3,63.2,58.3,51.4,91,81,62,30.06,29.85,15,2,68,2.97
2013-5-24,70.3,58.1,47.8,61.0,53.7,46.1,95,86,68,30.03,29.88,11,2,122,0.82
2013-5-25,70.3,57.3,45.8,62.2,53.1,43.9,95,87,68,29.89,29.77,115,2,115,0.43
2013-5-26,61.7,55.5,51.4,56.8,52.3,47.3,93,89,81,29.77,29.65,5,1,39,0.00
2013-5-27,73.0,62.3,53.0,59.8,53.5,46.7,95,75,44,29.89,29.65,17,4,86,0.53
2013-5-28,73.5,59.1,47.1,54.2,49.3,43.6,91,72,44,29.94,29.85,15,3,15,0.44
2013-5-29,73.9,57.6,46.9,57.8,48.8,42.0,94,75,41,29.94,29.71,10,2,18,1.70
2013-5-30,77.1,58.9,42.8,55.7,48.5,-99.9,86,71,42,29.91,29.71,23,3,57,1.44
2013-5-31,72.1,57.6,47.6,58.0,49.8,43.4,93,77,48,29.92,29.62,9,1,11,0.80
2013-6-1,68.5,55.5,42.4,52.7,45.2,-99.9,90,71,46,29.62,29.53,18,4,79,0.00
2013-6-2,62.6,58.2,54.5,43.3,38.5,33.0,61,48,44,29.71,29.47,27,11,243,0.02
2013-6-3,66.5,58.1,52.5,41.4,36.8,31.0,58,45,39,29.97,29.74,28,9,175,0.01
2013-6-4,67.1,60.1,51.8,44.7,41.5,36.4,60,50,44,30.09,29.94,115,9,165,1.51
2013-6-5,66.2,58.1,46.7,50.4,47.2,42.5,87,68,54,30.30,30.09,15,4,50,1.02
2013-6-6,64.7,50.5,38.6,52.6,43.0,27.4,93,77,32,30.24,30.03,10,1,47,0.39
2013-6-7,64.4,51.0,41.1,54.2,46.0,37.3,93,83,66,30.03,29.74,11,1,63,0.05
2013-6-8,64.7,56.4,48.7,54.4,49.8,43.3,90,79,50,30.06,29.59,61,7,229,9.38
2013-6-9,62.7,52.2,39.9,51.2,45.5,36.0,91,79,55,30.36,30.06,9,2,61,0.21
2013-6-10,62.9,47.3,36.5,49.3,40.6,34.6,94,79,51,30.33,30.04,9,2,36,0.05
2013-6-11,77.0,53.1,34.3,53.1,39.4,31.4,92,65,33,30.04,29.85,17,3,174,0.02
2013-6-12,78.9,56.0,42.6,67.9,45.7,37.5,100,70,40,29.86,29.68,14,3,57,0.01
2013-6-13,66.0,53.7,41.1,55.5,47.7,37.3,92,81,67,29.86,29.71,13,2,15,0.02
2013-6-14,69.6,56.4,45.3,52.4,47.6,43.0,94,75,43,30.06,29.77,26,6,150,0.18
2013-6-15,64.2,57.7,50.1,49.9,46.4,42.4,85,66,56,30.33,30.06,14,5,118,0.06
2013-6-16,63.6,51.9,40.6,52.9,45.1,35.8,89,78,57,30.33,30.24,9,1,10,0.12
2013-6-17,67.1,51.0,39.2,56.8,45.6,-99.9,95,84,62,30.33,30.01,8,1,9,0.02
2013-6-18,78.4,49.8,38.8,49.6,40.6,35.3,90,75,35,30.01,29.76,18,4,25,0.09
2013-7-5,55.9,53.0,51.0,53.3,51.1,49.4,95,93,91,29.86,29.83,4,1,36,1.25
2013-7-6,66.2,52.8,45.5,57.0,50.0,44.4,96,91,70,29.95,29.80,6,2,43,0.29
2013-7-7,67.8,54.7,42.0,54.4,47.2,39.9,95,78,50,30.09,29.92,8,2,43,0.10
2013-7-8,66.0,52.8,40.6,56.4,47.9,38.5,95,84,66,30.21,30.01,11,2,50,0.02
2013-7-9,65.6,53.7,41.5,58.7,50.4,39.9,96,89,75,30.30,30.12,8,2,68,0.04
2013-7-10,67.1,52.9,40.6,57.2,49.0,39.5,97,88,69,30.27,30.06,6,2,6,0.10
2013-7-11,73.5,56.2,43.1,62.3,51.3,41.5,96,85,63,30.06,29.92,11,2,11,0.04
2013-7-12,85.4,74.8,55.4,54.9,49.7,-99.9,86,43,32,29.92,29.82,23,6,165,0.31
2013-7-13,75.5,66.3,57.2,55.5,50.4,44.5,83,59,34,30.12,29.76,29,6,36,0.05
2013-7-14,59.5,56.8,54.5,54.1,52.2,50.8,90,85,80,30.18,29.97,10,3,12,0.33
2013-7-15,68.5,57.6,52.7,57.9,53.2,50.4,93,86,66,29.97,29.74,27,3,168,0.10
2013-7-16,66.7,58.6,49.2,55.8,51.7,46.1,91,79,55,30.09,29.94,9,2,39,0.16
2013-7-17,68.3,55.8,41.7,56.7,49.3,39.8,95,80,58,30.09,29.91,24,4,129,0.00
2013-7-18,64.9,56.1,48.2,57.8,49.9,41.3,92,80,61,29.92,29.74,13,3,62,0.75
2013-7-19,68.3,61.2,55.2,53.5,47.5,42.0,81,61,49,30.00,29.77,23,9,193,0.10
2013-7-20,67.4,59.2,52.8,53.1,49.0,45.3,83,70,48,30.24,29.97,25,7,175,0.09
2013-7-21,65.6,55.4,43.7,53.9,47.0,39.6,88,74,53,30.30,30.09,10,2,79,0.06
2013-7-22,70.7,52.1,38.8,57.0,44.2,36.4,93,76,45,30.09,29.65,7,2,10,0.12
2013-7-23,58.4,51.6,41.1,52.5,45.2,37.9,92,79,66,29.97,29.62,115,6,185,1.06
2013-7-24,60.8,50.6,40.8,44.6,39.3,34.7,87,67,47,30.24,29.97,15,3,50,0.00
2013-7-25,68.0,49.6,35.9,51.3,42.0,32.7,92,77,46,30.21,30.01,7,2,39,0.98
2013-7-26,67.1,53.0,40.2,55.3,47.0,37.8,93,81,59,30.01,29.62,11,2,57,0.02
2013-7-27,60.8,55.4,46.9,52.9,49.2,43.5,94,80,66,29.92,29.62,20,6,64,0.00
2013-7-28,63.5,53.4,41.1,45.3,40.2,36.4,87,63,44,30.24,29.89,25,6,208,0.06
2013-7-29,66.3,54.3,42.4,46.8,41.6,34.7,84,63,43,30.42,30.24,17,3,125,1.02
2013-7-30,64.5,51.9,40.4,52.3,45.3,37.9,92,79,56,30.42,30.27,10,2,93,1.16
2013-7-31,66.2,50.6,36.5,55.7,45.5,34.2,93,84,61,30.27,30.15,10,2,122,0.02
2013-8-1,84.0,55.3,39.0,56.4,43.8,37.1,95,71,32,30.15,30.06,15,2,172,1.12
2013-8-2,85.4,69.5,51.8,48.0,39.7,31.6,63,37,16,30.21,30.03,17,5,136,0.18
2013-8-3,70.1,56.4,44.0,56.1,46.7,36.6,86,71,56,30.21,30.03,8,2,14,0.04
2013-8-4,82.7,60.2,46.5,54.7,47.2,39.3,85,66,26,30.09,29.97,13,3,13,0.06
2013-8-5,66.2,56.2,46.2,54.0,49.0,42.2,88,77,63,30.09,29.95,9,2,11,0.02
2013-8-6,64.7,56.6,46.4,54.4,50.7,42.7,93,81,62,29.95,29.83,12,3,32,3.13
2013-8-7,63.1,55.4,51.2,52.9,50.0,47.0,91,82,63,29.86,29.71,29,8,35,0.62
2013-8-8,56.4,53.2,50.1,52.6,48.4,45.5,88,84,75,30.15,30.03,117,7,117,0.83
2013-8-9,62.0,52.4,42.9,51.2,45.2,39.2,93,78,57,30.21,30.15,11,3,123,0.29
2013-8-10,64.7,50.2,36.6,57.0,42.2,34.5,93,76,49,30.15,29.80,14,2,125,0.18
2013-8-11,72.8,51.6,36.5,53.1,43.8,33.1,90,77,38,29.89,29.68,13,3,61,0.12
2013-8-12,72.8,56.2,41.9,54.5,46.4,39.4,94,72,44,29.86,29.65,15,3,104,0.18
2013-8-13,61.8,53.4,44.6,55.7,48.4,41.1,91,83,73,29.68,29.56,11,2,57,0.16
2013-8-14,61.1,52.9,44.7,47.5,44.3,41.2,91,73,54,29.89,29.68,20,6,61,0.03
2013-8-15,64.7,53.0,40.8,49.7,43.7,37.8,93,72,53,29.86,29.71,17,4,20,0.09
2013-8-16,71.9,59.7,45.3,52.2,43.7,34.9,86,58,39,29.86,29.53,26,5,161,0.12
2013-8-17,64.0,58.1,53.0,51.2,45.1,38.8,87,63,44,29.94,29.53,28,12,118,2.60
2013-8-18,61.7,55.5,49.1,45.7,40.7,37.5,72,58,47,30.21,29.94,23,10,211,0.03
2013-8-19,65.6,52.1,39.2,49.3,42.4,35.7,90,71,47,30.21,30.01,11,3,140,2.54
2013-8-20,72.1,53.1,36.1,50.7,42.6,32.3,90,70,43,30.01,29.77,11,2,100,0.06
2013-8-21,61.8,51.3,40.8,52.4,44.7,-99.9,91,80,60,30.03,29.62,28,7,89,0.34
2013-8-22,60.2,50.9,41.5,43.3,38.2,34.2,79,63,44,30.24,30.03,15,4,15,0.03
2013-8-23,63.6,51.0,37.5,49.3,40.9,28.4,90,70,49,30.15,29.94,13,2,57,1.71
2013-8-24,66.3,53.6,39.3,51.7,44.7,34.9,93,74,47,30.21,29.98,15,3,47,1.56
2013-8-25,69.6,54.5,41.1,54.1,46.5,39.0,94,76,50,30.21,29.83,13,2,13,0.00
2013-8-26,66.3,57.8,48.0,56.8,52.0,44.3,93,81,63,29.85,29.62,11,3,13,0.00
2013-8-27,70.8,61.0,51.6,55.4,51.8,47.4,90,73,51,29.88,29.68,19,3,19,0.00
2013-8-28,78.8,61.2,51.8,58.8,51.8,47.9,89,73,41,29.80,29.59,24,3,25,0.00
2013-8-29,60.4,55.8,47.8,55.1,51.8,44.1,93,87,76,29.77,29.68,15,3,15,0.46
2013-8-30,63.5,52.1,37.5,47.5,39.5,34.9,92,65,41,29.86,29.68,24,6,24,0.04
2013-8-31,66.0,57.8,53.9,44.3,39.2,34.5,65,50,42,29.97,29.71,35,16,35,0.00
2013-9-1,65.4,56.4,44.2,48.5,41.9,37.1,87,59,44,30.15,29.97,20,7,23,0.00
2013-9-2,72.6,55.5,39.2,52.7,44.5,35.7,92,69,39,30.03,29.77,9,3,11,0.00
2013-9-3,64.2,54.2,42.2,50.1,44.3,36.5,85,70,51,30.21,29.92,16,5,17,0.00
2013-9-4,63.6,52.0,38.8,50.1,42.5,35.8,94,72,50,30.33,30.15,15,4,18,0.00
2013-9-5,68.0,54.6,42.6,54.2,46.4,38.2,92,75,48,30.27,30.09,16,4,16,0.00
2013-9-6,70.3,57.5,46.5,56.6,50.3,43.0,95,79,54,30.21,30.00,14,3,15,0.00
2013-9-7,74.6,60.2,43.7,59.8,53.6,40.9,94,80,60,30.00,29.74,13,4,13,0.00
2013-9-8,69.8,59.6,56.6,57.3,52.3,46.5,89,77,45,29.97,29.79,19,6,20,0.00
2013-9-9,63.5,57.2,51.8,49.2,43.8,39.8,83,62,45,30.12,29.97,15,6,20,0.00
2013-9-10,63.5,55.8,48.5,46.0,43.1,41.0,79,63,48,30.12,30.00,19,6,22,0.04
2013-9-11,62.6,53.8,42.0,46.4,40.5,35.0,84,62,43,30.15,30.09,17,5,18,0.00
2013-9-12,66.3,52.6,37.7,49.8,41.9,34.5,92,69,50,30.09,29.85,15,3,15,0.00
2013-9-13,65.8,52.7,38.4,53.1,44.9,35.2,93,76,57,29.86,29.71,12,3,13,0.00
2013-9-14,66.0,55.3,41.5,50.4,45.2,38.1,94,70,47,29.88,29.68,29,6,31,0.00
2013-9-15,77.0,56.1,44.2,52.2,46.5,40.1,92,72,36,29.97,29.62,28,7,41,0.00
2013-9-16,71.9,58.0,43.8,54.2,45.9,39.9,88,67,44,30.03,29.91,13,3,15,0.00
2013-9-17,77.3,61.2,45.8,58.8,49.5,42.5,92,68,41,29.97,29.85,13,3,15,0.00
2013-9-18,70.7,61.6,57.2,57.4,54.2,51.0,87,77,62,29.97,29.74,14,3,16,0.00
2013-9-19,70.8,60.9,48.7,57.7,52.5,46.2,92,75,53,29.74,29.44,15,5,15,0.08
2013-9-20,61.3,53.8,44.4,49.5,42.0,32.6,88,66,47,30.03,29.56,30,12,30,0.17
2013-9-21,64.5,52.9,38.6,42.6,37.5,30.4,76,57,40,30.27,30.03,20,6,23,0.00
2013-9-22,67.8,53.3,40.6,50.5,43.6,35.8,89,71,49,30.27,29.98,11,2,15,0.00
2013-9-23,75.0,58.7,41.5,58.2,50.1,39.1,93,74,48,29.98,29.77,12,4,15,0.00
2013-9-24,68.0,60.0,47.4,52.9,47.5,41.7,82,64,50,29.97,29.92,15,4,19,0.00
2013-9-25,68.7,59.7,47.1,53.5,49.3,41.5,85,69,53,29.97,29.89,15,3,15,0.00
2013-9-26,77.3,61.5,48.3,58.0,52.2,44.6,91,73,48,29.97,29.62,15,3,15,0.00
2013-9-27,66.0,58.0,50.1,57.1,46.2,35.3,93,67,48,29.89,29.50,42,14,42,0.00
2013-9-28,63.3,56.7,46.9,46.5,39.5,31.7,66,53,44,30.24,29.89,36,13,36,0.00
2013-9-29,65.4,57.4,47.8,44.2,41.6,37.4,73,57,43,30.36,30.21,15,5,17,0.00
2013-9-30,91.5,63.0,39.5,59.1,45.0,33.9,84,55,34,30.33,29.94,18,5,19,0.00
2013-10-1,95.5,67.3,48.3,55.7,42.8,-9.0,71,49,2,29.97,29.85,18,4,21,0.00
2013-10-2,75.9,61.6,49.8,58.5,50.8,39.8,84,68,48,30.03,29.88,13,3,13,0.00
2013-10-3,74.1,61.9,52.3,58.4,54.6,47.9,88,78,53,30.03,29.91,15,3,15,0.00
2013-10-4,65.6,62.5,59.1,60.3,58.2,56.5,91,86,78,30.09,29.97,9,3,11,0.16
2013-10-5,71.6,63.3,55.7,61.3,58.5,54.0,94,85,68,30.15,29.91,23,6,23,1.15
2013-10-6,67.1,59.0,53.4,55.2,50.1,44.6,94,74,49,30.30,30.15,17,6,17,0.34
2013-10-7,69.8,60.8,52.3,55.6,51.1,47.2,88,72,49,30.27,30.12,17,4,17,0.00
2013-10-8,76.4,62.1,46.7,59.8,51.7,43.9,92,71,47,30.12,29.88,12,3,12,0.00
2013-10-9,75.3,62.5,49.2,61.5,54.7,46.2,93,77,59,30.00,29.89,15,4,15,0.00
2013-10-10,82.5,66.9,50.9,65.1,58.0,48.7,94,75,54,29.92,29.79,11,3,12,0.00
2013-10-11,79.5,65.3,57.3,64.4,57.5,49.6,85,77,58,29.86,29.76,13,3,16,0.00
2013-10-12,71.6,61.4,52.3,59.4,51.2,44.2,88,71,40,30.09,29.77,37,10,37,1.23
2013-10-13,66.5,58.7,51.0,48.6,44.5,40.4,85,61,45,30.18,30.06,22,9,23,0.08
2013-10-14,70.1,60.1,47.6,52.2,47.4,40.8,81,64,47,30.15,30.00,13,5,13,0.00
2013-10-15,86.0,65.2,47.1,60.9,52.2,43.8,94,66,33,30.03,29.79,16,5,19,0.00
2013-10-16,66.5,61.8,57.5,53.3,49.0,45.5,74,63,51,30.18,30.03,18,7,18,0.00
2013-10-17,67.2,59.0,51.6,51.6,48.2,44.5,81,68,52,30.18,30.12,15,3,16,0.00
2013-10-18,68.9,59.6,45.8,55.2,49.0,42.2,89,69,50,30.18,30.12,17,4,17,0.00
2013-10-19,71.0,61.8,46.2,58.5,52.6,41.9,89,73,53,30.12,29.91,28,6,28,0.00
2013-10-20,73.9,64.0,56.8,62.1,57.6,53.4,91,81,57,29.91,29.85,16,4,19,0.79
2013-10-21,65.1,60.5,55.9,60.1,53.0,46.3,93,77,56,30.09,29.91,22,5,22,0.58
2013-10-22,69.0,60.6,48.5,56.9,48.8,45.5,92,67,44,30.09,30.00,15,3,16,0.00
2013-10-23,76.6,63.3,50.3,59.2,54.1,45.7,86,73,53,30.09,30.03,15,5,19,0.00
2013-10-24,84.3,69.0,52.5,64.0,58.6,49.9,92,72,45,30.06,29.82,23,4,23,0.00
2013-10-25,67.6,66.1,64.4,65.2,63.2,61.7,93,90,86,29.88,29.74,13,3,13,1.32
2013-10-26,79.5,69.5,63.8,71.6,63.5,60.1,95,82,67,30.00,29.82,23,6,23,0.00
2013-10-27,79.1,69.9,60.9,66.0,62.1,57.2,90,77,62,30.03,29.88,19,5,22,0.00
2013-10-28,76.6,67.7,61.3,66.6,62.7,58.2,93,85,70,29.91,29.85,11,4,13,0.00
2013-10-29,82.0,71.0,61.3,68.6,62.5,58.6,92,76,52,29.88,29.71,18,4,18,0.12
2013-10-30,64.7,63.4,61.3,62.0,60.2,57.0,92,89,82,29.74,29.65,9,2,9,0.38
2013-10-31,73.7,64.3,56.1,60.1,55.4,49.2,93,75,44,29.71,29.62,23,8,28,0.41
2013-11-1,71.2,64.8,61.3,64.5,60.5,58.2,93,86,75,30.09,29.68,20,8,21,0.33
2013-11-2,71.7,64.1,55.2,61.0,55.2,49.9,91,74,52,30.15,30.03,17,5,18,0.00
2013-11-3,75.9,63.5,50.1,60.8,54.5,47.0,92,74,54,30.03,29.91,13,4,14,0.00
2013-11-4,84.0,69.2,53.0,66.6,59.7,50.5,93,74,49,29.94,29.73,13,3,13,0.00
2013-11-5,79.3,68.4,57.0,67.0,59.5,53.9,91,74,58,29.85,29.77,15,4,15,0.00
2013-11-6,80.6,68.1,59.5,66.7,58.9,46.3,92,73,51,29.83,29.59,15,6,16,0.00
2013-11-7,76.6,65.9,51.0,55.3,48.8,43.0,77,56,33,29.97,29.77,28,11,28,0.00
2013-11-8,71.9,64.6,53.2,54.3,50.8,46.5,79,62,48,29.97,29.91,19,6,19,0.00
2013-11-9,70.8,64.3,57.2,59.8,54.4,49.7,83,70,59,30.09,29.94,15,4,15,0.00
2013-11-10,75.0,64.0,52.3,58.7,53.4,48.5,91,70,50,30.09,30.03,15,3,20,0.00
2013-11-11,75.0,66.0,53.4,60.9,56.2,49.3,88,71,55,30.06,29.80,26,6,29,0.00
2013-11-12,81.1,68.6,55.2,66.3,60.8,50.8,89,77,56,29.80,29.68,13,5,15,0.00
2013-11-13,79.7,72.5,67.8,66.3,64.7,62.3,89,77,58,29.79,29.65,15,5,15,0.00
2013-11-14,71.7,67.0,62.7,66.1,62.6,59.4,92,86,77,29.91,29.71,11,3,11,0.05
2013-11-15,71.4,65.9,57.9,65.4,61.3,55.6,93,85,73,29.91,29.77,28,10,28,0.00
2013-11-16,69.2,66.2,62.4,65.0,62.1,59.7,92,87,74,29.80,29.68,21,7,24,1.11
2013-11-17,69.4,63.4,56.1,66.5,60.8,53.8,94,92,89,29.97,29.71,17,5,17,0.45
2013-11-18,72.5,65.4,59.7,65.9,58.3,54.0,95,79,56,29.97,29.85,19,6,21,0.05
2013-11-19,83.3,69.5,53.0,66.4,60.0,50.5,92,74,49,29.86,29.41,11,4,11,0.00
2013-11-20,72.8,67.0,60.8,63.5,59.7,54.3,90,78,64,30.00,29.50,25,8,26,0.62
2013-11-21,71.6,63.5,55.7,58.7,52.8,46.7,90,70,46,30.09,29.91,20,6,24,0.08
2013-11-22,83.6,67.1,48.7,62.2,54.8,44.7,91,68,38,29.97,29.76,15,4,15,0.00
2013-11-23,73.2,67.7,60.9,63.6,59.2,55.9,88,75,58,30.09,29.97,15,4,15,0.00
2013-11-24,82.7,69.7,55.0,65.2,60.1,51.8,91,73,52,30.09,29.71,20,5,23,0.00
2013-11-25,89.7,71.8,58.6,75.5,63.8,56.3,93,77,53,29.79,29.56,13,3,13,0.00
2013-11-26,75.0,68.0,62.2,64.2,60.9,57.4,90,79,56,30.09,29.79,14,7,14,0.08
2013-11-27,76.2,64.5,58.4,62.2,57.4,53.4,91,79,59,30.21,30.06,13,4,13,0.17
2013-11-28,75.0,66.4,54.6,62.8,55.5,51.7,91,70,47,30.21,29.97,30,7,30,0.00
2013-11-29,84.0,68.3,52.8,63.0,56.7,49.4,89,69,44,29.97,29.73,13,4,13,0.00
2013-11-30,74.1,66.6,62.6,62.9,58.5,53.9,86,75,63,30.09,29.85,18,6,23,0.08
2013-12-1,73.0,66.1,55.5,59.7,53.6,49.3,86,66,47,30.06,29.97,32,10,34,0.00
2013-12-2,86.7,69.6,51.9,63.8,58.3,47.9,90,69,45,30.00,29.82,11,4,14,0.00
2013-12-3,90.3,71.2,64.2,73.2,63.0,58.4,89,77,41,29.97,29.77,19,6,23,0.17
2013-12-4,77.0,67.6,62.2,60.6,56.7,52.3,80,69,48,30.18,29.91,23,8,23,0.00
2013-12-5,72.1,64.7,54.3,57.9,52.1,48.2,84,65,48,30.18,30.09,16,6,16,0.00
2013-12-6,78.8,64.8,50.9,60.5,53.7,46.5,86,69,47,30.15,30.09,19,6,24,0.00
2013-12-7,72.6,66.6,59.3,58.1,54.4,50.7,74,65,53,30.12,29.91,30,9,30,0.00
2013-12-8,75.3,67.4,57.7,61.7,57.6,50.8,85,72,55,29.97,29.88,25,7,28,0.00
2013-12-9,72.6,66.9,60.9,64.9,61.6,56.9,90,83,74,29.94,29.85,17,5,21,0.04
2013-12-10,71.2,66.7,60.9,66.6,63.1,58.3,92,88,81,29.94,29.85,15,6,15,0.00
2013-12-11,77.3,68.5,57.5,67.8,59.9,55.5,94,75,56,29.94,29.88,25,8,25,0.00
2013-12-12,81.5,70.1,55.2,64.2,57.3,52.0,92,66,47,29.94,29.79,22,6,22,0.00
2013-12-13,80.6,68.9,58.1,66.8,60.5,54.5,90,76,55,29.85,29.68,13,4,14,0.00
2013-12-14,78.8,70.7,63.5,65.5,61.6,57.2,83,73,60,29.85,29.73,13,3,13,0.00
2013-12-15,78.0,70.3,65.4,63.4,60.9,55.0,86,73,48,29.91,29.74,22,5,22,0.04
2013-12-16,78.8,68.9,62.6,67.3,59.1,54.3,90,72,51,30.03,29.88,19,6,19,0.04
2013-12-17,77.7,67.7,56.3,63.3,57.0,51.8,86,70,50,30.06,29.94,14,4,16,0.00
2013-12-18,77.7,67.3,53.6,63.1,57.0,50.4,90,71,52,30.06,29.91,29,8,32,0.00
2013-12-19,84.9,69.2,54.1,66.5,58.7,50.0,90,71,41,29.91,29.82,17,4,19,0.00
2013-12-20,86.9,73.4,60.8,68.8,63.3,56.5,89,72,46,29.88,29.67,15,4,15,0.00
2013-12-21,80.2,73.5,67.2,70.1,65.8,62.1,85,77,63,30.03,29.85,13,5,15,0.00
2013-12-22,82.5,72.6,66.0,69.1,64.5,60.8,89,77,59,30.00,29.88,17,4,20,0.00
2013-12-23,80.6,72.6,66.2,69.5,65.1,60.3,90,78,63,29.97,29.91,17,4,18,0.00
2013-12-24,80.2,70.7,61.1,68.4,64.1,55.9,87,80,64,29.91,29.79,13,3,15,0.00
2013-12-25,84.9,76.4,71.0,70.8,68.4,66.6,90,77,60,29.88,29.67,21,7,23,0.00
2013-12-26,80.7,73.8,67.6,69.2,65.2,53.9,89,76,43,29.97,29.85,18,6,122,0.00
2013-12-27,87.9,74.9,60.6,68.1,62.6,55.4,87,68,41,29.94,29.62,15,4,18,0.00
2013-12-28,80.4,71.8,65.6,64.6,58.7,50.2,79,64,47,30.03,29.74,18,4,18,0.00
2013-12-29,80.9,73.2,62.6,62.2,58.8,53.3,74,61,47,30.03,29.82,29,9,31,0.00
2013-12-30,84.7,72.7,58.8,67.9,62.1,53.3,85,71,48,29.97,29.82,11,4,11,0.00
2013-12-31,80.6,72.1,61.5,68.2,63.6,57.7,89,76,54,29.97,29.85,25,6,25,0.00
2014-1-1,82.2,74.1,63.6,70.4,65.8,60.0,89,76,61,29.85,29.70,13,5,13,0.00
2014-1-2,83.3,76.4,69.4,71.5,67.5,62.7,88,75,53,29.85,29.73,23,9,24,0.07